Regional Weather Roundup
Issued by NWS Goodland, KS

Home | Current Version | Previous Version | Text Only | Print | Product List | Glossary Off
Versions: 1 2 3 4 5 6 7 8 9 10 11 12 13 14 15 16 17 18 19 20 21 22 23 24 25 26 27 28 29 30 31 32 33 34 35 36 37 38 39 40 41 42 43 44 45 46 47 48 49 50

000
ASUS43 KGLD 261308
RWRGLD

GOODLAND FORECAST AREA HOURLY WEATHER ROUNDUP
NATIONAL WEATHER SERVICE GOODLAND KS
600 AM MST WED NOV 26 2014

...OFFICIAL OBSERVATIONS...

CITY           SKY/WX    TMP DP  RH WIND       PRES   REMARKS
GOODLAND KS    MOCLDY    30  27  88 NW21G26   30.16R WCI  17
HILL CITY KS   MOCLDY    38  25  59 NW14      30.10R
IMPERIAL NEB   CLOUDY    34  21  59 NW17G23   30.17R
MCCOOK NEB     CLOUDY    36  21  54 N24G31    30.13R
AKRON CO       LGT SNOW  26  25  96 NW12      30.17S FOG     WCI  16
BURLINGTON CO  MOCLDY    28  25  88 NW16      30.18R WCI  16
LIMON CO       MOCLDY    20  18  92 NW10      30.19R WCI   9
$$

...UNOFFICIAL OBSERVATIONS...

CITY           SKY/WX    TMP DP  RH WIND       PRES   REMARKS
COLBY KS       CLOUDY    34  30  86 NW21G28   30.14R
GOVE KS          N/A     35  32  89 MISG        N/A
NORTON KS      PTCLDY    36  19  51 NW21G26   30.10R
SHARON SPRINGS   N/A     30  27  90 N16         N/A  WCI  19
TRIBUNE KS     MOCLDY    32  30  93 W14       30.21R
TRENTON NEB      N/A     35  32  89 NW25        N/A
YUMA CO          N/A     28  26  92 NW14        N/A  WCI  17
$$



USA.gov is the U.S. government's official web portal to all federal, state and local government web resources and services.